Flag for Estonia Weather past 2 weeks in Kohtla-Järve, Estonia

Now
37 °F

Overcast.


Feels Like: 32 °F
Forecast: 35 / 42 °F
Wind: 6 mph from Northeast

Location: Johvi

Current Time: Apr 18, 2015 at 11:59:34 AM

Latest Report: Apr 18, 2015 at 11:00 AM


Visibility: 25 mi

Pressure: 29.95 "Hg

Humidity: 66%

Dew point: 27 °F

Location of Kohtla-JärveLocation

Historic Weather in Kohtla-Järve — Graph

°F

Kohtla-Järve temperature yesterday

Maximum temperature yesterday: 41 °F (at 4:00 PM)
Minimum temperature yesterday: 33 °F (at 11:00 PM)
Average temperature yesterday: 36 °F

Past Weeks' High & Low Weather Summary

 TemperatureHumidityPressure
High60 °F (Apr 12, 1:00 PM)100% (Apr 4, 9:00 AM)30.27 "Hg (Apr 4, 9:00 AM)
Low30 °F (Apr 7, 5:00 AM)28% (Apr 9, 5:00 PM)29.18 "Hg (Apr 16, 7:00 AM)
Average39 °F77%29.81 "Hg
* Reported Apr 3 10:00 AM — Apr 18 10:00 AM, Kohtla-Järve, Weather by CustomWeather, © 2015

Note: Actual official high and low records may vary slightly from our data, if they occured in-between our weather recording intervals... More about our weather records

Advertising

Kohtla-Järve weather history for previous 24 hours

 ConditionsComfort  
Time TempWeatherWind HumidityBarometerVisibility
10:00 AM
Sat, Apr 18
37 °FScattered clouds.6 mph72%29.93 "Hg25 mi
9:00 AM36 °FOvercast.6 mph78%29.94 "Hg28 mi
8:00 AM35 °FOvercast.5 mph82%29.94 "Hg31 mi
7:00 AM35 °FOvercast.3 mph84%29.94 "Hg28 mi
6:00 AM35 °FOvercast.3 mph87%29.93 "Hg28 mi
5:00 AM35 °FOvercast.2 mph86%29.93 "Hg28 mi
4:00 AM34 °FPassing clouds.2 mph84%29.92 "Hg31 mi
3:00 AM36 °FOvercast.2 mph81%29.91 "Hg31 mi
2:00 AM38 °FOvercast.6 mph82%29.91 "Hg31 mi
1:00 AM37 °FOvercast.3 mph87%29.90 "Hg31 mi
12:00 AM35 °FPassing clouds.2 mph93%29.89 "Hg31 mi
11:00 PM
Fri, Apr 17
33 °FPassing clouds.1 mph96%29.88 "Hg19 mi
10:00 PM34 °FClear.2 mph92%29.87 "Hg25 mi
9:00 PM36 °FPassing clouds.2 mph87%29.85 "Hg31 mi
8:00 PM38 °FSunny.6 mph81%29.82 "Hg31 mi
7:00 PM39 °FPartly sunny.6 mph82%29.79 "Hg25 mi
6:00 PM39 °FOvercast.7 mph85%29.77 "Hg28 mi
5:00 PM40 °FPassing clouds.7 mph77%29.74 "Hg22 mi
4:00 PM41 °FPassing clouds.7 mph78%29.72 "Hg25 mi
3:00 PM38 °FOvercast.6 mph86%29.70 "Hg25 mi
2:00 PM38 °FLow clouds.6 mph91%29.66 "Hg25 mi
1:00 PM36 °FLight rain. Low clouds.5 mph96%29.63 "Hg9 mi
12:00 PM36 °FRain showers. Low clouds.3 mph93%29.60 "Hg22 mi
11:00 AM36 °FDrizzle. Low clouds.3 mph94%29.57 "Hg22 mi
Weather by CustomWeather, © 2015

See weather overviewHow to use our weather pages